Вернуться в каталог

STARLINK-11402

АктивенСвязьVLEO
NORAD 61874·PAYLOAD·🇺🇸 United States

Запущен Nov 9, 2024 с Vandenberg Space Force Base

Loading…

Ближайшие Пролёты (ближайшие 24 часа)

TLE

СвежийSource: CelesTrak SupGP

Эпоха: Sep 15, 2026, 03:36 UTC

1 61874C 24204A   26258.15048611  .00085046  00000+0  70018-3 0  2586
2 61874  53.1562 142.6541 0001126  88.0148  32.3957 15.69679766    14

Отслеживайте STARLINK-11402 в реальном времени с AllMySat

Download on the App Store